Date,TemperatureHighF,TemperatureAvgF,TemperatureLowF,DewpointHighF,DewpointAvgF,DewpointLowF,HumidityHigh,HumidityAvg,HumidityLow,PressureMaxIn,PressureMinIn,WindSpeedMaxMPH,WindSpeedAvgMPH,GustSpeedMaxMPH,PrecipitationSumIn
2014-3-1,41.3,30.8,18.6,19.0,7.3,-3.0,51,37,26,30.38,30.16,19,3,21,0.00
2014-3-2,41.1,36.6,31.5,33.8,26.3,18.5,88,68,44,30.16,30.02,14,2,16,0.28
2014-3-3,31.3,14.8,-5.6,25.8,6.8,-13.2,85,71,48,30.41,30.03,25,5,26,0.16
2014-3-4,28.5,11.9,-7.5,7.4,-1.5,-15.0,75,56,33,30.49,30.26,10,1,14,0.00
2014-3-5,41.3,26.2,9.3,15.8,7.1,1.8,75,48,25,30.44,30.21,15,1,21,0.00
2014-3-6,33.5,27.0,20.6,14.4,10.2,6.0,55,49,42,30.60,30.38,13,4,20,0.00
2014-3-7,41.6,31.9,24.4,26.4,20.1,12.1,80,62,50,30.39,29.98,15,2,15,0.00
2014-3-8,62.6,39.8,20.5,35.9,25.8,16.4,88,62,23,30.00,29.88,20,2,24,0.00
2014-3-9,47.1,40.8,35.0,32.2,17.8,3.7,75,42,17,30.15,29.93,27,9,27,0.00
2014-3-10,67.8,46.7,28.1,28.9,23.5,18.7,74,45,18,30.01,29.63,26,4,29,0.00
2014-3-11,71.1,55.5,36.2,35.8,32.5,27.0,74,44,23,29.71,29.60,21,3,24,0.00
2014-3-12,70.3,48.3,29.0,52.5,34.0,12.0,83,60,30,29.63,29.01,49,11,50,0.05
2014-3-13,31.8,24.9,15.6,13.1,-2.4,-11.1,51,31,19,30.13,29.56,38,20,48,0.00
2014-3-14,56.2,54.8,53.6,12.5,10.5,6.2,19,17,16,29.89,29.83,34,12,34,0.00
2014-3-15,62.0,53.4,39.5,33.5,18.1,6.2,52,27,11,30.06,29.77,38,11,46,0.00
2014-3-16,41.1,34.0,25.7,26.1,19.4,3.4,85,58,22,30.21,30.06,21,3,21,0.07
2014-3-17,30.4,26.2,22.2,21.4,19.2,17.8,86,75,61,30.11,30.03,13,2,15,0.16
2014-3-18,42.5,35.0,28.2,22.8,18.2,10.4,71,51,37,30.24,30.10,10,1,15,0.00
2014-3-19,41.9,38.1,34.3,37.2,30.5,21.5,88,75,50,30.22,29.86,24,3,24,0.01
2014-3-20,53.9,45.5,32.5,38.5,25.1,11.4,92,51,19,30.01,29.82,35,10,43,0.00
2014-3-21,51.6,40.4,29.7,34.6,27.8,18.6,80,62,42,30.09,30.01,16,2,18,0.01
2014-3-22,68.8,53.1,41.8,34.7,27.0,16.1,68,41,15,30.03,29.83,32,8,33,0.00
2014-3-23,44.2,38.5,28.4,26.6,17.6,2.1,67,44,24,30.23,30.03,25,7,25,0.00
2014-3-24,39.5,27.9,16.2,10.5,2.6,-6.6,57,35,14,30.35,30.14,25,6,27,0.00
2014-3-25,31.9,28.8,22.4,29.3,20.5,7.1,90,73,39,30.16,29.88,10,1,10,0.12
2014-3-26,34.4,27.4,19.1,24.2,9.2,-3.1,90,50,20,30.34,29.93,39,13,39,0.00
2014-3-27,48.8,33.3,14.1,17.9,11.0,5.7,76,43,23,30.43,30.14,25,7,30,0.00
2014-3-28,65.5,53.3,43.9,47.7,36.6,14.9,82,55,29,30.14,29.94,30,7,30,0.10
2014-3-29,51.6,47.7,42.6,47.9,43.3,38.3,92,85,70,30.09,29.60,8,1,10,1.01
2014-3-30,45.7,41.3,34.6,43.5,34.8,28.4,92,79,55,29.89,29.58,38,16,39,0.68
2014-3-31,65.3,50.2,38.6,28.7,23.7,16.2,60,38,15,30.11,29.89,30,14,34,0.00